Regional Weather Roundup
Issued by NWS Newport/Morehead, NC

Current Version | Previous Version | Graphics & Text | Print | Product List | Glossary Off
Versions: 1 2 3 4 5 6 7 8 9 10 11 12 13 14 15 16 17 18 19 20 21 22 23 24 25 26 27 28 29 30 31 32 33 34 35 36 37 38 39 40 41 42 43 44 45 46 47 48 49 50

000
ASUS42 KMHX 281125
RWRMHX
WEATHER ROUNDUP FOR EASTERN NORTH CAROLINA
NATIONAL WEATHER SERVICE NEWPORT/MOREHEAD CITY NC
700 AM EDT THU MAY 28 2015

NOTE: "FAIR" INDICATES FEW OR NO CLOUDS BELOW 12,000 FEET
WITH NO SIGNIFICANT WEATHER AND/OR OBSTRUCTIONS TO VISIBILITY

NCZ015>017-031-032-045>047-102-103-281200-
NORTH COAST

CITY           SKY/WX    TMP DP  RH WIND       PRES   REMARKS
EDENTON        MOSUNNY   71  66  82 S7        30.24R
ELIZABETH CITY CLOUDY    71  65  81 S9        30.23R
KITTY HAWK     CLOUDY    72  64  77 S5        30.23S
MANTEO         CLOUDY    73  64  73 S13       30.25S

$$

NCZ045>047-081-094-103-104-281200-
CENTRAL COAST

CITY           SKY/WX    TMP DP  RH WIND       PRES   REMARKS
FRISCO         SUNNY     72  60  66 S6        30.26R
SWANQUARTER      N/A     75 N/A N/A S7        30.21S

$$

NCZ095-097-098-100-101-281200-
SOUTHERN COAST

CITY           SKY/WX    TMP DP  RH WIND       PRES   REMARKS
BEAUFORT       SUNNY     70  64  81 SE3       30.24R
CEDAR ISLAND     N/A     75 N/A N/A S3        30.30S
JACKSONVILLE   MOSUNNY   67  64  90 S3        30.23R
PINEY ISLAND   SUNNY    N/A N/A N/A SE5       30.24S
WILMINGTON     PTSUNNY   67  64  90 CALM      30.24R


$$

NCZ011>013-027>030-043-044-078>080-089-090>093-098-281200-
COASTAL PLAIN

CITY           SKY/WX    TMP DP  RH WIND       PRES   REMARKS
AHOSKIE        PTSUNNY   67  65  94 S3        30.24R
CLINTON        MOSUNNY   68  68 100 CALM      30.24R
ELIZABETHTOWN  MOCLDY    68  68 100 SE3       30.23R
GOLDSBORO      MOSUNNY   68  66  91 CALM      30.21R
GREENVILLE     PTSUNNY   70  66  88 S5        30.25R
HAVELOCK       SUNNY     66  62  87 E3        30.25R
KENANSVILLE    MOSUNNY   67  65  94 CALM      30.25R
KINSTON        MOSUNNY   68  64  88 CALM      30.25R
NEW BERN       CLOUDY    70  64  81 S3        30.25R
RICHLANDS      MOSUNNY   66  63  88 CALM      30.24S
ROCKY MOUNT    CLOUDY    69  68  96 S3        30.24R FOG
WASHINGTON     PTSUNNY   70  65  82 CALM      30.24R
WHITEVILLE     PTCLDY    68  65  91 CALM      30.23R

$$

AMZ130-135-150-152-154-156-158-170-250-252-270-ANZ085-086-088-633-658-670-281200-
MARINE OBSERVATIONS

STATION/POSITION TIME  TEMP    WIND        PRES    WAVE   SWELL
                       AIR SEA DIR/SP/G            HT/PER HT/PER
                 (UTC) (F)     (DEG/KT/KT) (MB)    (FT/S) (FT/S)
CHESAPEAKE LIGHT 1100   67     190/ 20/ 21 1023.7
64 E VA BEACH    1050   66 63  160/  8/ 10 1024.0    3/ 8   3/ 8
DUCK             1100   72 54  180/ 11/ 13 1022.8
2 E DUCK         1011      58                N/A     2/ 6
OREGON INLET     1100   73 76  180/  8/ 11 1024.2
13E OREGON INLT  1100      70                N/A     3/ 8
HATTERAS CG      1100   74 75  170/  5/  6 1024.0
DIAMOND BUOY     1050   74 77  170/  6/  8 1024.6    2/ 8   2/ 8
CAPE LOOKOUT     1100   73     110/  6/  6 1023.8
BEAUFORT LAB     1100   73 75  130/  7/  7 1023.1
27 SE WRIGHTSVLE 1100      76   70/  2/  4   N/A
5 SE WRIGHTSVLE  1008   74 76  160/  6/ 12 1023.1
225 S CAPE HAT   1050   73 74   60/ 12/ 14 1023.4    5/ 8   5/ 8
41 SE CHARLESTON 1050   75 78   90/  8/ 10 1022.2    3/ 7   3/ 7

$$



USA.gov is the U.S. government's official web portal to all federal, state and local government web resources and services.